Weather observations for the past three days for
Port Hope
Imperial (Metric)
Date Time (edt) Wind (mph) Vis. (mi.) Weather Sky Cond. Temperature (ºF) Relative Humidity Wind Chill (°F) Heat Index (°F) Pressure Precipitation (in)
Air Dwpt 6 hour altimeter (in) sea level (mb) 1 hr 3 hr 6 hr
Max. Min.
06 07:55 N 9 0.00 NULL NULL 39 30 39.9 37 70% 33 29.86 1011.7
06 06:55 N 10 G 21 0.00 NULL NULL 37.9 30 73% 32 29.82 1010.6
06 05:55 N 18 0.00 NULL NULL 37.9 30.9 76% 29 29.8 1009.5
06 04:55 N 18 G 28 0.00 NULL NULL 39 30.9 73% 30 29.8 1009.6
06 03:55 N 20 G 28 0.00 NULL NULL 39 33.1 79% 30 29.8 1009.6
06 02:55 N 18 G 28 0.00 NULL NULL 39 33.1 79% 30 29.79 1009.4
06 01:55 N 16 0.00 NULL NULL 39.9 34 43 39.9 79% 32 29.79 1009.1
06 00:55 N 12 0.00 NULL NULL 42.1 35.1 76% 36 29.78 1008.8
05 23:55 NE 13 0.00 NULL NULL 42.1 34 73% 36 29.78 1008.6
05 22:55 NE 16 0.00 NULL NULL 42.1 33.1 71% 35 29.76 1008.2
05 21:55 NE 16 0.00 NULL NULL 42.1 35.1 76% 35 29.75 1008.0
05 20:55 E 16 0.00 NULL NULL 42.1 37 82% 35 29.73 1007.1
05 19:55 E 15 0.00 NULL NULL 42.1 37.9 50 42.1 85% 35 29.71 1006.6
05 18:55 E 15 0.00 NULL NULL 44.1 37.9 79% 38 29.71 1006.6
05 17:55 E 18 0.00 NULL NULL 46.9 41 80% 40 29.7 1006.2
05 16:55 E 20 0.00 NULL NULL 48 39.9 74% 42 29.7 1006.1
05 15:55 E 21 0.00 Breezy NULL 46.9 39.9 77% 40 29.7 1006.2
05 14:55 E 18 0.00 NULL NULL 48 37.9 68% 42 29.7 1006.2
05 13:55 E 10 0.00 NULL NULL 50 37.9 55.9 46.9 63% 46 29.7 1005.9
05 12:55 SW 8 0.00 NULL NULL 54 35.1 49% 29.69 1005.4
05 11:55 Vrbl 6 0.00 NULL NULL 51.1 33.1 50% 29.7 1005.7
05 10:55 Vrbl 3 0.00 NULL NULL 48.9 36 61% 29.69 1005.1
05 09:55 NW 7 0.00 NULL NULL 46.9 35.1 63% 44 29.67 1004.6
05 08:55 NW 6 0.00 NULL NULL 48 36 63% 46 29.64 1003.5
05 07:55 NW 9 0.00 NULL NULL 46.9 36 46.9 44.1 66% 43 29.63 1003.2
05 06:55 NW 7 0.00 NULL NULL 46 37.9 73% 43 29.58 1001.4
05 05:55 NW 7 0.00 NULL NULL 45 39 80% 42 29.55 1000.5
05 04:55 NW 8 0.00 NULL NULL 45 39.9 83% 41 29.54 1000.0
05 03:55 NW 6 0.00 NULL NULL 45 39.9 83% 42 29.51 998.9
05 02:55 NW 5 0.00 NULL NULL 44.1 42.1 93% 42 29.5 998.6
05 01:55 Vrbl 3 0.00 NULL NULL 45 43 71.1 45 93% 29.49 998.5
05 00:55 NW 9 0.00 NULL NULL 51.1 50 96% 29.46 997.4
04 23:55 N 15 G 24 0.00 NULL NULL 50 44.1 80% 45 29.43 996.4
04 22:55 Vrbl 6 0.00 NULL NULL 68 39.9 36% 29.41 995.3
04 21:55 S 7 0.00 NULL NULL 69.1 37.9 32% 29.42 995.9
04 20:55 SW 7 0.00 NULL NULL 69.1 37 31% 29.41 995.6
04 19:55 Vrbl 7 0.00 NULL NULL 71.1 36 75 71.1 28% 29.4 995.2
04 18:55 SW 10 G 23 0.00 NULL NULL 73 34 24% 29.43 996.1
04 17:55 SW 10 G 28 0.00 NULL NULL 73.9 32 21% 29.44 996.6
04 16:55 SW 18 G 30 0.00 NULL NULL 73.9 32 21% 29.45 996.8
04 15:55 SW 21 G 37 0.00 Breezy NULL 75 33.1 22% 76 29.45 996.7
04 14:55 SW 21 G 38 0.00 Breezy NULL 73.9 35.1 24% 29.46 997.2
04 13:55 SW 15 G 31 0.00 NULL NULL 72 37 72 53.1 28% 29.48 997.9
04 12:55 SW 13 G 31 0.00 NULL NULL 71.1 39.9 32% 29.51 998.8
04 11:55 SW 9 G 21 0.00 NULL NULL 68 46 45% 29.53 999.8
04 10:55 SW 8 G 18 0.00 NULL NULL 63 46 54% 29.55 1000.5
04 09:55 SW 9 G 18 0.00 NULL NULL 60.1 45 58% 29.56 1000.9
04 08:55 SW 13 G 21 0.00 NULL NULL 55 44.1 67% 29.58 1001.5
04 07:55 SW 8 G 21 0.00 NULL NULL 53.1 42.1 53.1 48.9 66% 29.58 1001.8
04 06:55 SW 9 0.00 NULL NULL 50 41 71% 47 29.58 1001.8
04 05:55 SW 9 G 18 0.00 NULL NULL 50 39.9 68% 47 29.59 1002.0
04 04:55 SW 13 G 22 0.00 NULL NULL 51.1 39.9 66% 29.59 1002.0
04 03:55 S 9 G 16 0.00 NULL NULL 51.1 39.9 66% 29.6 1002.5
04 02:55 SW 12 G 20 0.00 NULL NULL 50 42.1 74% 46 29.63 1003.5
04 01:55 SW 14 G 26 0.00 NULL NULL 52 39 57 52 61% 29.64 1004.0
04 00:55 SW 13 G 24 0.00 NULL NULL 53.1 37.9 57% 29.65 1004.3
03 23:55 SW 10 G 23 0.00 NULL NULL 53.1 37.9 57% 29.67 1004.7
03 22:55 SW 13 G 25 0.00 NULL NULL 54 37.9 55% 29.68 1005.2
03 21:55 SW 9 G 22 0.00 NULL NULL 55 37.9 53% 29.69 1005.4
03 20:55 SW 13 G 25 0.00 NULL NULL 55 37.9 53% 29.68 1005.3
03 19:55 SW 14 G 25 0.00 NULL NULL 57 37.9 63 48.9 49% 29.67 1005.0
03 18:55 SW 22 G 40 0.00 Breezy NULL 60.1 37 42% 29.68 1005.3
03 17:55 SW 8 G 28 0.00 NULL NULL 60.1 37 42% 29.69 1005.5
03 16:55 SW 12 G 23 0.00 NULL NULL 62.1 39.9 44% 29.69 1005.5
03 15:55 Vrbl 6 0.00 NULL NULL 55 41 59% 29.72 1007.0
03 14:55 SW 13 G 24 0.00 NULL NULL 54 39.9 59% 29.74 1007.5
03 13:55 SW 13 G 23 0.00 NULL NULL 48.9 41 55.9 43 74% 44 29.76 1008.2
03 12:55 SW 7 G 20 0.00 NULL NULL 48 42.1 80% 45 29.79 1009.5
03 11:55 W 13 G 28 0.00 NULL NULL 55 35.1 47% 29.79 1009.2
03 10:55 SW 10 G 21 0.00 NULL NULL 54 35.1 49% 29.8 1009.4
03 09:55 SW 14 G 24 0.00 NULL NULL 48 30.9 52% 43 29.81 1009.9
03 08:55 SW 13 G 23 0.00 NULL NULL 45 28 52% 39 29.82 1010.2
Date Time (edt) Wind (mph) Vis. (mi.) Weather Sky Cond. Air Dwpt Max. Min. Relative Humidity Wind Chill (°F) Heat Index (°F) altimeter (in) sea level (mb) 1 hr 3 hr 6 hr
6 hour
Temperature (ºF) Pressure Precipitation (in)